FW9978 Weather Reports


Display with metric or nautical units.
time (UTC)temp
F
wind
direction
speed
MPH
gust
MPH
rain 1hr
in
rain 24hr
in
rain mn
in
humidity
%
barometer
mb
20260505153033 72 117 6.0 16.0 0.00 0.00 0.00 88 1006.4
20260505151535 72 123 6.0 13.0 0.00 0.00 0.00 88 1006.2
20260505124542 70 129 3.0 10.0 0.00 0.00 0.00 87 1005.5
20260505123012 70 130 5.0 15.0 0.00 0.00 0.00 87 1005.5
20260505121613 70 135 4.0 14.0 0.00 0.00 0.00 87 1005.1
20260505114553 70 98 4.0 10.0 0.00 0.00 0.00 86 1005.2
20260505113104 70 123 4.0 14.0 0.00 0.00 0.00 86 1005.1
20260505111514 70 107 4.0 9.0 0.00 0.00 0.00 86 1005.0
20260505110124 70 119 5.0 12.0 0.00 0.00 0.00 86 1005.0
20260505101522 70 239 7.0 15.0 0.00 0.00 0.00 86 1005.0
20260505100008 70 233 6.0 11.0 0.00 0.00 0.00 86 1005.1
20260505094507 70 209 6.0 12.0 0.00 0.00 0.00 86 1004.8
20260505093029 70 261 5.0 11.0 0.00 0.00 0.00 86 1004.9
20260505091517 70 215 5.0 12.0 0.00 0.00 0.00 85 1004.8
20260505090124 70 242 2.0 13.0 0.00 0.00 0.00 85 1005.0
20260505084524 70 252 3.0 11.0 0.00 0.00 0.00 85 1005.1
20260505083039 70 222 3.0 11.0 0.00 0.00 0.00 84 1005.6
20260505081547 70 275 4.0 13.0 0.00 0.00 0.00 84 1005.9
20260505080053 70 253 3.0 10.0 0.00 0.00 0.00 83 1006.1
20260505074540 70 198 5.0 10.0 0.00 0.00 0.00 83 1006.2
20260505073053 70 229 4.0 15.0 0.00 0.00 0.00 83 1006.4
20260505071550 70 266 3.0 10.0 0.00 0.00 0.00 83 1006.7
20260505070059 70 224 4.0 12.0 0.00 0.00 0.00 83 1006.8
20260505064604 70 214 4.0 11.0 0.00 0.00 0.00 83 1007.1
20260505063112 70 90 3.0 10.0 0.00 0.00 0.00 82 1007.1
20260505061507 70 182 2.0 9.0 0.00 0.00 0.00 81 1007.2
20260505060129 71 286 3.0 9.0 0.00 0.00 0.00 81 1007.0
20260505054621 71 225 2.0 8.0 0.00 0.00 0.00 80 1007.2
20260505053006 71 255 3.0 10.0 0.00 0.00 0.00 80 1007.1
20260505051539 71 310 1.0 9.0 0.00 0.00 0.00 79 1007.1
20260505050138 71 242 2.0 10.0 0.00 0.00 0.00 79 1006.9
20260505041547 72 172 3.0 6.0 0.00 0.00 0.00 78 1006.9
20260505040017 72 180 1.0 5.0 0.00 0.00 0.00 77 1007.1
20260505034511 72 109 3.0 9.0 0.00 0.00 0.00 77 1007.1
20260505033039 72 246 2.0 8.0 0.00 0.00 0.00 76 1007.1
20260505031528 73 202 2.0 7.0 0.00 0.00 0.00 76 1007.1
20260505030055 73 175 2.0 7.0 0.00 0.00 0.00 75 1007.0
20260505024523 73 112 3.0 9.0 0.00 0.00 0.00 75 1006.9
20260505023038 73 159 3.0 9.0 0.00 0.00 0.00 74 1006.8
20260505021556 73 138 2.0 5.0 0.00 0.00 0.00 73 1006.8
20260505020056 73 146 1.0 9.0 0.00 0.00 0.00 73 1006.4
20260505014538 74 191 0.0 6.0 0.00 0.00 0.00 72 1006.5
20260505013047 74 191 1.0 4.0 0.00 0.00 0.00 71 1006.6
20260505011558 75 144 0.0 4.0 0.00 0.00 0.00 71 1006.4
20260505010015 75 213 1.0 5.0 0.00 0.00 0.00 70 1006.6
20260505004536 76 192 4.0 9.0 0.00 0.00 0.00 70 1006.5
20260505003046 77 198 2.0 7.0 0.00 0.00 0.00 69 1006.6
20260505001546 77 121 1.0 9.0 0.00 0.00 0.00 68 1006.6
20260504234534 78 212 2.0 8.0 0.00 0.00 0.00 67 1006.9
20260504233052 79 171 2.0 8.0 0.00 0.00 0.00 67 1007.2
20260504231552 79 215 4.0 10.0 0.00 0.00 0.00 67 1007.4
20260504230113 79 227 4.0 11.0 0.00 0.00 0.00 66 1007.4
20260504224545 79 184 3.0 9.0 0.00 0.00 0.00 66 1007.4
20260504223048 79 240 4.0 12.0 0.00 0.00 0.00 65 1007.7
20260504221550 79 195 3.0 11.0 0.00 0.00 0.00 65 1007.7
20260504220104 79 219 5.0 15.0 0.00 0.00 0.00 65 1007.8
20260504214548 79 217 4.0 13.0 0.00 0.00 0.00 64 1007.9
20260504213045 80 130 4.0 14.0 0.00 0.00 0.00 64 1008.1
20260504211542 80 205 4.0 9.0 0.00 0.00 0.00 64 1008.5
20260504210056 79 146 5.0 15.0 0.00 0.00 0.00 64 1008.7
20260504204512 80 169 7.0 13.0 0.00 0.00 0.00 64 1009.2
20260504203043 79 185 3.0 8.0 0.00 0.00 0.00 64 1009.6
20260504201546 79 128 4.0 11.0 0.00 0.00 0.00 63 1009.6
20260504200050 79 152 5.0 12.0 0.00 0.00 0.00 63 1009.9
20260504194512 79 161 5.0 18.0 0.00 0.00 0.00 62 1010.2
20260504193022 79 202 6.0 11.0 0.00 0.00 0.00 62 1010.7
20260504191557 79 138 3.0 14.0 0.00 0.00 0.00 63 1010.7
20260504190022 79 239 3.0 12.0 0.00 0.00 0.00 63 1010.8
20260504184540 78 322 3.0 14.0 0.00 0.00 0.00 63 1011.0
20260504183046 77 246 9.0 16.0 0.00 0.00 0.00 62 1011.1
20260504181552 77 259 4.0 12.0 0.00 0.00 0.00 65 1011.4
20260504180057 76 171 5.0 19.0 0.00 0.00 0.00 65 1011.6
20260504174535 76 233 5.0 12.0 0.00 0.00 0.00 66 1012.1
20260504173037 75 248 5.0 13.0 0.00 0.00 0.00 66 1012.1
20260504171517 75 300 4.0 11.0 0.00 0.00 0.00 66 1012.3
20260504170135 74 200 8.0 18.0 0.00 0.00 0.00 66 1012.5